Location: L�beck
(53.8752°N, 10.6787°E)
Time: 00:18:07
(UTC+01:00)

ISS - Pass Details

Date: 05 January 2018
Orbit: 401 x 406 km, 51.6° (Epoch: 17 January)

Event Time Altitude Azimuth Distance (km) Brightness Sun altitude
Exits shadow 06:05:54 55° 174° (S) 497 -3.4 -20.5°
Maximum altitude 06:05:55 55° 172° (S) 497 -3.4 -20.5°
Drops below altitude 10° 06:09:09 10° 94° (E) 1,469 0.2 -20.0°
Sets 06:11:15 0° 90° (E) 2,331 1.5 -19.7°
